Location: Tamazert
(32.6352°N, 5.2072°W)
Time: 05:45:22
(UTC+00:00)

Vanguard 2 - Pass Details

Date: 05 October 2022
Orbit: 553 x 2933 km, 32.9° (Epoch: 26 November)

Event Time Altitude Azimuth Distance (km) Brightness Sun altitude
Rises 13:24:07 0° 257° (WSW) 4,481 11.8 48.5°
Reaches altitude 10° 13:26:38 10° 257° (WSW) 3,763 11.6 48.2°
Maximum altitude 13:37:13 87° 170° (S) 2,204 10.8 47.1°
Drops below altitude 10° 13:53:57 10° 84° (E) 5,643 11.7 45.0°
Sets 13:58:39 0° 84° (E) 6,761 12.0 44.4°
